CST,Max TemperatureF,Mean TemperatureF,Min TemperatureF,Max Dew PointF,MeanDew PointF,Min DewpointF,Max Humidity, Mean Humidity, Min Humidity, Max Sea Level PressureIn, Mean Sea Level PressureIn, Min Sea Level PressureIn, Max VisibilityMiles, Mean VisibilityMiles, Min VisibilityMiles, Max Wind SpeedMPH, Mean Wind SpeedMPH, Max Gust SpeedMPH,PrecipitationIn, CloudCover, Events, WindDirDegrees
2012-11-1,70,52,33,35,28,16,84,50,13,30.12,29.99,29.91,10,10,5,12,7,,0.00,0,,249
2012-11-2,58,45,32,35,28,24,78,45,28,30.16,30.02,29.91,10,10,10,23,12,32,0.00,0,,318
2012-11-3,63,44,26,33,25,15,90,59,16,30.17,30.15,30.10,10,10,10,20,6,24,0.00,0,,279
2012-11-4,61,44,28,35,26,20,79,49,21,30.27,30.16,30.11,10,10,10,24,10,32,0.00,2,,300
2012-11-5,63,50,36,35,32,29,83,55,27,30.27,30.17,30.07,10,10,10,20,10,25,0.00,2,,298
2012-11-6,64,50,34,34,31,28,79,53,26,30.27,30.19,30.14,10,10,10,14,10,18,0.00,0,,311
2012-11-7,74,53,32,33,25,18,88,48,12,30.16,30.00,29.90,10,10,10,21,9,25,0.00,0,,241
2012-11-8,55,44,32,32,27,19,91,55,34,30.02,29.92,29.83,10,10,10,18,10,23,0.00,0,,49
2012-11-9,53,42,31,34,32,29,94,77,46,29.83,29.67,29.53,10,10,7,17,8,18,0.00,0,,142
2012-11-10,33,24,15,33,26,12,100,94,82,29.80,29.58,29.47,10,3,0,24,9,30,0.00,7,Fog-Snow,357
2012-11-11,25,13,1,18,10,-2,88,82,69,30.12,29.95,29.80,10,10,10,15,8,16,0.00,1,,293
2012-11-12,38,22,7,24,13,1,82,64,48,30.24,30.20,30.12,10,10,10,20,10,,0.00,0,,252
2012-11-13,47,34,22,28,23,14,84,62,39,30.25,30.20,30.16,10,10,10,22,8,28,0.00,3,,299
2012-11-14,51,37,24,36,27,21,89,72,39,30.24,30.16,30.08,10,10,5,20,7,31,0.02,2,Rain,237
2012-11-15,48,39,29,36,28,22,92,71,36,30.38,30.31,30.19,10,10,7,15,9,23,0.02,3,Rain,261
2012-11-16,57,41,26,32,28,23,90,65,30,30.30,30.15,30.03,10,10,10,21,9,25,0.00,1,,202
2012-11-17,62,48,34,33,31,29,81,57,28,30.09,30.05,30.02,10,10,10,14,8,21,0.00,1,,281
2012-11-18,64,46,28,33,27,23,90,58,21,30.05,29.98,29.92,10,10,10,22,7,26,0.00,0,,263
2012-11-19,61,46,31,33,27,22,87,60,23,30.20,30.15,30.05,10,10,10,24,9,30,0.00,0,,272
2012-11-20,67,48,29,29,22,16,80,47,14,30.21,30.13,30.06,10,10,10,20,9,22,0.00,0,,244
2012-11-21,71,51,31,25,21,13,72,43,11,30.05,29.94,29.86,10,10,10,14,8,17,0.00,0,,258
2012-11-22,53,40,25,31,16,7,76,38,21,30.44,30.12,29.86,10,10,10,30,17,44,0.00,0,,323
2012-11-23,47,30,14,18,13,10,83,53,23,30.47,30.37,30.17,10,10,10,15,9,,0.00,0,,259
2012-11-24,65,48,31,19,15,6,58,33,11,30.16,29.99,29.89,10,10,10,37,13,44,0.00,0,,278
2012-11-25,57,42,26,27,22,15,77,50,22,29.98,29.90,29.78,10,10,10,22,6,26,0.00,2,,186
2012-11-26,33,26,20,27,23,18,96,85,64,30.32,30.20,29.99,10,9,2,12,7,,0.00,5,,104
2012-11-27,58,36,14,28,15,7,90,59,13,30.21,30.13,30.07,10,9,5,21,8,28,0.00,0,,272
2012-11-28,59,40,21,17,12,7,76,42,13,30.21,30.11,30.02,10,10,10,12,7,,0.00,0,,242
2012-11-29,65,45,25,23,16,8,61,36,16,30.04,29.99,29.92,10,10,10,28,10,37,0.00,0,,273
2012-11-30,61,46,30,24,20,18,67,43,20,30.05,29.94,29.82,10,10,10,17,9,22,0.00,0,,215